Poziom trudności   Średni

Współrzędne 780

Uploaded 26 listopada 2013

Recorded listopada 2013

-
-
320 m
185 m
0
11
22
44,28 km

Obejrzane 366 razy, pobrane 0 razy

w pobliżu  Bobin, Województwo małopolskie (Rzeczpospolita Polska)

Thu Oct 24 10:32:53 2013 S=0.81 Km/hr
Thu Oct 24 10:33:43 2013 S=4.89 Km/hr
Thu Oct 24 10:33:55 2013 S=16.63 Km/hr
Thu Oct 24 10:34:09 2013 S=20.11 Km/hr
Thu Oct 24 10:34:17 2013 S=27.17 Km/hr
Thu Oct 24 10:34:24 2013 S=27.58 Km/hr
Thu Oct 24 10:34:33 2013 S=2.08 Km/hr
Thu Oct 24 10:34:42 2013 S=42.75 Km/hr
Thu Oct 24 10:34:46 2013 S=54.41 Km/hr
Thu Oct 24 10:34:50 2013 S=63.32 Km/hr
Thu Oct 24 10:34:53 2013 S=64.79 Km/hr
Thu Oct 24 10:34:56 2013 S=71.26 Km/hr
Thu Oct 24 10:34:59 2013 S=77.50 Km/hr
Thu Oct 24 10:35:02 2013 S=76.10 Km/hr
Thu Oct 24 10:35:05 2013 S=77.57 Km/hr
Thu Oct 24 10:35:08 2013 S=78.79 Km/hr
Thu Oct 24 10:35:11 2013 S=81.13 Km/hr
Thu Oct 24 10:35:14 2013 S=82.12 Km/hr
Thu Oct 24 10:35:17 2013 S=84.21 Km/hr
Thu Oct 24 10:35:20 2013 S=83.88 Km/hr
Thu Oct 24 10:35:23 2013 S=81.80 Km/hr
Thu Oct 24 10:35:26 2013 S=84.98 Km/hr
Thu Oct 24 10:35:29 2013 S=86.64 Km/hr
Thu Oct 24 10:35:32 2013 S=87.92 Km/hr
Thu Oct 24 10:35:35 2013 S=94.40 Km/hr

Komentarze

    You can or this trail